Radiation Dose at Monitoring Post of Fukushima Daini Nuclear Power Station
Date,Time,MP-1(microSv/h),MP-2(microSv/h),MP-3(microSv/h),MP-4(microSv/h),MP-5(microSv/h),MP-6(microSv/h),MP-7(microSv/h),Wind Direction,Wind Velocity(m/s),Rain
2021/05/09,00:00,0.171,0.156,0.251,0.239,0.234,0.134,0.084,east-southeast,0.7,No
2021/05/09,00:10,0.171,0.158,0.252,0.239,0.239,0.134,0.083,south-southeast,1.1,No
2021/05/09,00:20,0.171,0.157,0.252,0.241,0.236,0.135,0.084,south,1.6,No
2021/05/09,00:30,0.171,0.156,0.251,0.239,0.237,0.134,0.083,south,1.2,No
2021/05/09,00:40,0.172,0.156,0.252,0.240,0.237,0.134,0.084,south,1.3,No
2021/05/09,00:50,0.171,0.156,0.252,0.238,0.238,0.133,0.084,southwest,1.9,No
2021/05/09,01:00,0.172,0.157,0.252,0.240,0.236,0.135,0.084,south-southwest,1.4,No
2021/05/09,01:10,0.171,0.156,0.252,0.240,0.238,0.134,0.084,south-southwest,1.9,No
2021/05/09,01:20,0.172,0.157,0.253,0.240,0.237,0.135,0.085,south,2.9,No
2021/05/09,01:30,0.171,0.156,0.251,0.240,0.237,0.133,0.084,south-southwest,2.1,No
2021/05/09,01:40,0.172,0.156,0.252,0.239,0.236,0.135,0.085,southwest,0.7,No
2021/05/09,01:50,0.171,0.157,0.252,0.241,0.237,0.133,0.084,south,0.8,No
2021/05/09,02:00,0.172,0.156,0.252,0.239,0.237,0.135,0.084,-,CALM,No
2021/05/09,02:10,0.171,0.157,0.253,0.241,0.237,0.134,0.085,west-southwest,1.5,No
2021/05/09,02:20,0.172,0.157,0.252,0.240,0.238,0.134,0.084,-,CALM,No
2021/05/09,02:30,0.171,0.157,0.252,0.241,0.235,0.135,0.085,east,0.9,No
2021/05/09,02:40,0.173,0.157,0.252,0.240,0.239,0.134,0.084,north,0.9,No
2021/05/09,02:50,0.172,0.157,0.252,0.240,0.237,0.135,0.085,north,1.0,No
2021/05/09,03:00,0.173,0.157,0.253,0.241,0.239,0.135,0.084,north,1.8,No
2021/05/09,03:10,0.173,0.157,0.253,0.240,0.236,0.135,0.084,north-northeast,2.3,No
2021/05/09,03:20,0.172,0.157,0.254,0.241,0.239,0.134,0.085,north,2.0,No
2021/05/09,03:30,0.173,0.156,0.253,0.241,0.237,0.135,0.084,north-northwest,0.9,No
2021/05/09,03:40,0.172,0.156,0.252,0.241,0.239,0.134,0.084,northeast,1.7,No
2021/05/09,03:50,0.173,0.157,0.254,0.240,0.237,0.134,0.084,northeast,2.4,No
2021/05/09,04:00,0.172,0.157,0.252,0.241,0.238,0.135,0.085,northeast,2.6,No
2021/05/09,04:10,0.174,0.158,0.252,0.241,0.237,0.135,0.085,north-northeast,2.3,No
2021/05/09,04:20,0.172,0.157,0.251,0.240,0.237,0.135,0.085,northeast,1.3,No
2021/05/09,04:30,0.172,0.157,0.253,0.242,0.238,0.135,0.084,northeast,1.0,No
2021/05/09,04:40,0.172,0.158,0.253,0.241,0.237,0.136,0.084,northeast,1.7,No
2021/05/09,04:50,0.173,0.157,0.253,0.240,0.240,0.135,0.084,north,2.1,No
2021/05/09,05:00,0.173,0.158,0.253,0.241,0.237,0.135,0.085,north-northeast,2.2,No
2021/05/09,05:10,0.171,0.158,0.253,0.240,0.238,0.135,0.084,north-northeast,1.7,No
2021/05/09,05:20,0.173,0.157,0.253,0.242,0.238,0.135,0.085,north-northeast,1.7,No
2021/05/09,05:30,0.171,0.158,0.252,0.241,0.239,0.135,0.085,north-northwest,2.7,No
2021/05/09,05:40,0.173,0.158,0.253,0.241,0.239,0.135,0.085,north,1.4,No
2021/05/09,05:50,0.173,0.157,0.252,0.240,0.237,0.135,0.086,-,CALM,No
2021/05/09,06:00,0.172,0.158,0.252,0.240,0.239,0.136,0.084,west,1.9,No
2021/05/09,06:10,0.172,0.157,0.251,0.241,0.237,0.134,0.084,west-northwest,1.3,No
2021/05/09,06:20,0.172,0.157,0.251,0.240,0.239,0.135,0.084,-,CALM,No
2021/05/09,06:30,0.172,0.157,0.252,0.241,0.236,0.135,0.084,south-southeast,1.5,No
2021/05/09,06:40,0.171,0.158,0.252,0.239,0.239,0.134,0.085,south-southeast,2.1,No
2021/05/09,06:50,0.173,0.157,0.252,0.240,0.238,0.135,0.085,south-southeast,1.3,No
2021/05/09,07:00,0.172,0.157,0.253,0.240,0.239,0.135,0.085,south,1.0,No
2021/05/09,07:10,0.172,0.157,0.254,0.241,0.237,0.135,0.084,southeast,0.7,No
2021/05/09,07:20,0.173,0.158,0.251,0.240,0.238,0.135,0.085,east-southeast,0.8,No
2021/05/09,07:30,0.172,0.157,0.251,0.240,0.237,0.134,0.085,southeast,1.0,No
2021/05/09,07:40,0.172,0.157,0.254,0.238,0.238,0.135,0.085,southeast,1.3,No
2021/05/09,07:50,0.171,0.157,0.251,0.240,0.238,0.134,0.084,south-southeast,1.3,No
2021/05/09,08:00,0.171,0.157,0.250,0.241,0.235,0.135,0.085,east-southeast,1.6,No
2021/05/09,08:10,0.171,0.157,0.253,0.239,0.239,0.135,0.084,south,1.2,No
2021/05/09,08:20,0.171,0.155,0.251,0.239,0.237,0.134,0.084,south-southeast,2.4,No
2021/05/09,08:30,0.172,0.156,0.250,0.240,0.236,0.136,0.083,southeast,2.7,No
2021/05/09,08:40,0.170,0.156,0.248,0.239,0.238,0.134,0.084,south-southeast,2.0,No
2021/05/09,08:50,0.170,0.156,0.251,0.238,0.236,0.133,0.084,southeast,1.9,No
2021/05/09,09:00,0.172,0.155,0.252,0.237,0.234,0.133,0.083,east-southeast,1.5,No
2021/05/09,09:10,0.170,0.155,0.251,0.238,0.236,0.135,0.083,east-southeast,2.9,No
2021/05/09,09:20,0.168,0.156,0.248,0.241,0.236,0.133,0.083,east-southeast,3.0,No
2021/05/09,09:30,0.170,0.153,0.249,0.238,0.235,0.133,0.083,southeast,2.7,No
2021/05/09,09:40,0.171,0.156,0.248,0.236,0.233,0.134,0.083,south-southeast,3.6,No
2021/05/09,09:50,0.170,0.156,0.253,0.236,0.236,0.134,0.083,south-southeast,4.2,No
2021/05/09,10:00,0.169,0.155,0.252,0.238,0.237,0.132,0.083,south-southeast,4.0,No
2021/05/09,10:10,0.167,0.155,0.249,0.240,0.236,0.133,0.083,south-southeast,3.7,No
2021/05/09,10:20,0.172,0.155,0.250,0.238,0.233,0.135,0.082,south,4.5,No
2021/05/09,10:30,0.170,0.156,0.249,0.238,0.234,0.133,0.083,south-southeast,4.9,No
2021/05/09,10:40,0.169,0.155,0.250,0.236,0.237,0.133,0.082,south-southeast,5.3,No
2021/05/09,10:50,0.167,0.155,0.254,0.240,0.235,0.132,0.082,southeast,5.0,No
2021/05/09,11:00,0.168,0.156,0.252,0.241,0.234,0.134,0.083,south-southeast,4.2,No
2021/05/09,11:10,0.171,0.156,0.250,0.239,0.233,0.133,0.082,south-southeast,5.8,No
2021/05/09,11:20,0.171,0.155,0.250,0.238,0.233,0.132,0.082,south-southeast,5.6,No
2021/05/09,11:30,0.171,0.154,0.248,0.236,0.232,0.133,0.082,south-southeast,4.2,No
2021/05/09,11:40,0.169,0.155,0.248,0.238,0.237,0.134,0.082,south-southeast,3.5,No
2021/05/09,11:50,0.168,0.156,0.249,0.238,0.237,0.133,0.083,south-southeast,3.6,No
2021/05/09,12:00,0.168,0.154,0.252,0.239,0.236,0.133,0.083,south-southeast,3.4,No
2021/05/09,12:10,0.171,0.155,0.252,0.240,0.233,0.133,0.082,south-southeast,4.2,No
2021/05/09,12:20,0.171,0.155,0.251,0.238,0.237,0.133,0.083,south-southeast,3.8,No
2021/05/09,12:30,0.169,0.154,0.252,0.242,0.237,0.133,0.083,northeast,1.5,No
2021/05/09,12:40,0.172,0.155,0.254,0.239,0.235,0.134,0.083,north-northwest,0.7,No
2021/05/09,12:50,0.171,0.155,0.251,0.237,0.236,0.133,0.083,northeast,0.9,No
2021/05/09,13:00,0.170,0.154,0.252,0.241,0.238,0.132,0.082,east-northeast,1.3,No
2021/05/09,13:10,0.170,0.156,0.253,0.239,0.233,0.133,0.083,north,2.7,No
2021/05/09,13:20,0.170,0.154,0.251,0.240,0.238,0.133,0.082,north,2.4,No
2021/05/09,13:30,0.172,0.156,0.253,0.240,0.237,0.133,0.082,north-northwest,2.1,No
2021/05/09,13:40,0.170,0.156,0.253,0.237,0.233,0.133,0.083,north,2.2,No
2021/05/09,13:50,0.171,0.156,0.251,0.241,0.238,0.132,0.082,north-northwest,2.5,No
2021/05/09,14:00,0.169,0.156,0.251,0.239,0.236,0.133,0.083,northwest,2.7,Yes
2021/05/09,14:10,0.170,0.156,0.251,0.239,0.235,0.134,0.083,west-northwest,4.7,Yes
2021/05/09,14:20,0.171,0.156,0.254,0.241,0.238,0.133,0.082,northwest,5.0,No
2021/05/09,14:30,0.170,0.155,0.251,0.239,0.236,0.133,0.083,north-northwest,3.7,No
2021/05/09,14:40,0.170,0.155,0.248,0.237,0.234,0.135,0.083,west-northwest,4.6,No
2021/05/09,14:50,0.170,0.156,0.252,0.241,0.233,0.134,0.084,northwest,7.5,No
2021/05/09,15:00,0.169,0.155,0.251,0.239,0.236,0.133,0.083,west-northwest,7.8,No
2021/05/09,15:10,0.171,0.156,0.250,0.238,0.235,0.134,0.083,west-northwest,6.0,No
2021/05/09,15:20,0.170,0.155,0.255,0.242,0.234,0.134,0.083,west-northwest,5.6,No
2021/05/09,15:30,0.169,0.154,0.252,0.240,0.236,0.132,0.082,west-northwest,5.6,No
2021/05/09,15:40,0.172,0.155,0.250,0.239,0.237,0.133,0.082,west-northwest,5.9,No
2021/05/09,15:50,0.171,0.156,0.250,0.241,0.234,0.134,0.082,west-northwest,4.2,No
2021/05/09,16:00,0.168,0.154,0.253,0.240,0.233,0.133,0.083,west-northwest,3.9,No
2021/05/09,16:10,0.172,0.156,0.251,0.237,0.236,0.134,0.083,northwest,4.5,No
2021/05/09,16:20,0.171,0.155,0.252,0.239,0.237,0.133,0.082,west-northwest,7.8,No
2021/05/09,16:30,0.170,0.155,0.252,0.239,0.235,0.133,0.083,west-northwest,4.9,No
2021/05/09,16:40,0.171,0.157,0.250,0.238,0.234,0.133,0.082,northwest,3.0,No
2021/05/09,16:50,0.171,0.155,0.253,0.241,0.238,0.133,0.083,north-northwest,4.7,Yes
2021/05/09,17:00,0.170,0.157,0.251,0.240,0.236,0.134,0.082,north-northwest,4.3,No
2021/05/09,17:10,0.172,0.156,0.253,0.240,0.237,0.134,0.083,north-northwest,4.4,No
2021/05/09,17:20,0.171,0.156,0.253,0.240,0.237,0.134,0.083,northwest,2.1,No
2021/05/09,17:30,0.171,0.155,0.250,0.238,0.236,0.134,0.082,west-northwest,3.9,No
2021/05/09,17:40,0.172,0.155,0.253,0.240,0.238,0.134,0.083,northwest,4.3,No
2021/05/09,17:50,0.169,0.155,0.250,0.239,0.236,0.134,0.083,northwest,6.7,No
2021/05/09,18:00,0.171,0.156,0.254,0.240,0.237,0.133,0.082,north-northwest,5.4,No
2021/05/09,18:10,0.171,0.156,0.252,0.241,0.236,0.134,0.082,west-northwest,6.2,No
2021/05/09,18:20,0.172,0.154,0.254,0.240,0.236,0.133,0.083,northwest,4.0,No
2021/05/09,18:30,0.171,0.156,0.252,0.241,0.238,0.133,0.082,north-northwest,6.8,No
2021/05/09,18:40,0.170,0.156,0.253,0.238,0.234,0.134,0.082,northwest,5.2,No
2021/05/09,18:50,0.171,0.156,0.252,0.240,0.237,0.133,0.083,northwest,5.2,No
2021/05/09,19:00,0.170,0.156,0.254,0.238,0.236,0.134,0.083,northwest,4.5,No
2021/05/09,19:10,0.172,0.155,0.252,0.242,0.237,0.134,0.083,northwest,6.6,No
2021/05/09,19:20,0.169,0.156,0.252,0.239,0.237,0.133,0.083,northwest,8.1,No
2021/05/09,19:30,0.170,0.155,0.251,0.240,0.236,0.134,0.082,west-northwest,7.3,No
2021/05/09,19:40,0.171,0.156,0.253,0.240,0.237,0.133,0.083,west-northwest,8.1,Yes
2021/05/09,19:50,0.172,0.155,0.253,0.240,0.236,0.133,0.083,west-northwest,8.7,No
2021/05/09,20:00,0.170,0.157,0.254,0.239,0.237,0.133,0.083,west-northwest,6.8,Yes
2021/05/09,20:10,0.172,0.156,0.253,0.241,0.236,0.134,0.082,northwest,6.0,No
2021/05/09,20:20,0.171,0.156,0.253,0.239,0.238,0.134,0.083,west-northwest,6.7,No
2021/05/09,20:30,0.172,0.156,0.254,0.241,0.236,0.134,0.083,northwest,7.5,No
2021/05/09,20:40,0.171,0.156,0.254,0.240,0.239,0.132,0.083,west-northwest,8.2,No
2021/05/09,20:50,0.172,0.156,0.253,0.240,0.235,0.133,0.083,northwest,8.4,No
2021/05/09,21:00,0.171,0.156,0.253,0.239,0.238,0.133,0.083,northwest,7.5,No
2021/05/09,21:10,0.171,0.155,0.252,0.240,0.235,0.133,0.083,west,11.1,No
2021/05/09,21:20,0.170,0.156,0.254,0.239,0.237,0.133,0.083,west-northwest,9.5,No
2021/05/09,21:30,0.172,0.155,0.251,0.239,0.236,0.134,0.083,west-northwest,9.6,No
2021/05/09,21:40,0.171,0.156,0.252,0.239,0.238,0.134,0.082,west,11.2,No
2021/05/09,21:50,0.171,0.156,0.253,0.240,0.235,0.134,0.082,west-northwest,9.5,No
2021/05/09,22:00,0.171,0.155,0.252,0.240,0.237,0.134,0.082,west-northwest,11.1,No
2021/05/09,22:10,0.171,0.156,0.252,0.240,0.236,0.134,0.083,west-northwest,11.8,No
2021/05/09,22:20,0.171,0.156,0.253,0.241,0.238,0.134,0.083,northwest,10.6,No
2021/05/09,22:30,0.171,0.156,0.254,0.240,0.235,0.134,0.083,west-northwest,8.1,No
2021/05/09,22:40,0.171,0.156,0.252,0.241,0.237,0.134,0.083,west-northwest,9.6,No
2021/05/09,22:50,0.170,0.157,0.255,0.241,0.236,0.133,0.082,west-northwest,11.2,No
2021/05/09,23:00,0.172,0.156,0.254,0.241,0.236,0.133,0.083,-,CALM,No
2021/05/09,23:10,0.172,0.156,0.253,0.239,0.237,0.134,0.083,west-northwest,10.1,No
2021/05/09,23:20,0.173,0.156,0.254,0.240,0.236,0.133,0.082,-,CALM,No
2021/05/09,23:30,0.171,0.155,0.253,0.240,0.237,0.135,0.083,-,CALM,No
2021/05/09,23:40,0.171,0.156,0.253,0.240,0.235,0.134,0.082,west,16.6,No
2021/05/09,23:50,0.170,0.156,0.253,0.241,0.236,0.133,0.084,-,CALM,No
